{"data":{"norad_id":48843,"epoch":"2026-05-25T05:04:48.161856Z","epoch_age_seconds":66822,"freshness":"FRESH","line1":"1 48843U 21050D   26145.21166854  .00004156  00000+0  17935-3 0  9999","line2":"2 48843  97.3337 221.7738 0005204   3.2003 356.9266 15.23060846275466","mean_motion":15.23060846,"eccentricity":0.0005204,"inclination_deg":97.3337,"raan_deg":221.7738,"arg_perigee_deg":3.2003,"mean_anomaly_deg":356.9266,"bstar":0.00017935,"rev_number":27546,"period_min":94.546452545337,"perigee_km":493.03689668701,"apogee_km":500.19213806629,"semimajor_km":6874.7515173766,"source":"CELESTRAK","updated_at":"2026-05-25T13:37:56.972723Z"}}